Location: Newark
(29.9790°N, 31.1340°E)
Time: 10:29:05
(UTC+00:00)

Vanguard 3 - Pass Details

Date: 20 January 2021
Orbit: 508 x 3262 km, 33.4° (Epoch: 07 March)

Event Time Altitude Azimuth Distance (km) Brightness Sun altitude
Exits shadow 00:36:04 21° 92° (E) 2,817 10.1 -54.9°
Drops below altitude 10° 00:39:43 10° 80° (E) 3,976 11.1 -54.1°
Sets 00:44:21 0° 73° (ENE) 5,477 11.9 -53.1°
